STARLINK-30199

decayed
NORAD ID: 57299 Int'l Des: 2023-096 Owner: SPXS Country: US Constellation: starlink
LEOCIRCULAR
Gruppe

Über STARLINK-30199

Beschreibung wird geladen...

Höhenverlauf

Altitude vs Time

uPlot chart will show altitude changes over time

Zweizeiliger Elementsatz

1 57299U 23096K 25222.43687554 .15185128 90532-5 32188-2 0 9996
2 57299 42.9667 233.4180 0004681 116.2303 36.2183 16.29813799115515
Epoch: 10. Aug. 2025 • Age: 937 hours

Aktueller Status

Position data unavailable
Startdatum 10. Juli 2023
Alter 2.1 years
Verglühungsdatum 10. Aug. 2025
Typ internet

Technische Details

Klassifizierung Payload
Masse 730.00 kg
Trockenmasse 700.00 kg
Gesamtmasse 730.00 kg
Länge 0.30 m
Durchmesser 4.10 m
Spannweite 29.00 m
Form Box + pan
Hersteller SPXS
Bus-Typ Starlink V2M
Phasenstatus Unknown Transfer Status
Besitzer/Staat SPXS/US

Große Konstellationen

Loading constellations...